Lyndonville, VT

1:55 PM EDT on September 20, 2017 (GMT -0400)
Lyndonville

Weather History for KCDA - March, 2014

Change the Weather History Date:

Saturday, March 15, 2014

  Actual Average (K1V4) Record (K1V4)
Temperature  
Mean Temperature 36 °F -  
Max Temperature 46 °F 34 °F 62 °F (1989)
Min Temperature 27 °F 16 °F -9 °F (1896)
Degree Days  
Heating Degree Days 28    
Moisture  
Dew Point 24 °F    
Average Humidity 69    
Maximum Humidity 92    
Minimum Humidity 44    
Precipitation  
Precipitation 0.00 in - - ()
Sea Level Pressure  
Sea Level Pressure 29.66 in    
Wind  
Wind Speed 8 mph (SW)    
Max Wind Speed 15 mph    
Max Gust Speed 20 mph    
Visibility 8 miles    
Events Rain , Snow    
Averages and records for this station are not official NWS values.
T = Trace of Precipitation, MM = Missing Value Source: NWS Daily Summary

Daily Weather History Graph

Daily Weather History Graph

Search for Another Location

Airport or City:

Trip Planner

Search our weather history database for the weather conditions in past years. The results will help you decide how hot, cold, wet, or windy it might be!

Date:

Astronomy

Mar. 15, 2014 Rise Set
Actual Time 7:00 AM EDT 6:54 PM EDT
Civil Twilight 6:31 AM EDT 7:23 PM EDT
Nautical Twilight 5:57 AM EDT 7:57 PM EDT
Astronomical Twilight 5:23 AM EDT 8:31 PM EDT
Moon 6:10 PM EDT (3/15) 6:12 AM EDT (3/15)
Length of Visible Light 12h 51m
Length of Day
11h 53m
Waxing Gibbous, 99% of the Moon is Illuminated
Mar 15
Waxing Gibbous
Mar 16
Full
Mar 23
Last Quarter
Mar 30
New
Apr 7
First Quarter

Hourly Weather History & Observations

Time (EDT) Temp. Windchill Dew Point Humidity Pressure Visibility Wind Dir Wind Speed Gust Speed Precip Events Conditions
12:15 AM 29.3 °F 20.8 °F 16.0 °F 58% 29.72 in 10.0 mi SSE 9.2 mph - N/A   Mostly Cloudy
12:35 AM 29.3 °F 22.3 °F 16.3 °F 58% 29.72 in 10.0 mi SSE 6.9 mph - N/A   Mostly Cloudy
12:55 AM 30.0 °F 24.1 °F 16.7 °F 58% 29.71 in 10.0 mi SE 5.8 mph - N/A   Overcast
1:15 AM 30.2 °F 24.3 °F 16.9 °F 58% 29.70 in 10.0 mi SE 5.8 mph - N/A   Overcast
1:35 AM 30.2 °F 21.9 °F 17.2 °F 59% 29.69 in 10.0 mi SSE 9.2 mph - N/A   Overcast
1:55 AM 30.6 °F 24.7 °F 16.7 °F 56% 29.68 in 10.0 mi SSE 5.8 mph - N/A   Overcast
2:15 AM 30.9 °F 22.8 °F 17.1 °F 57% 29.68 in 10.0 mi SSE 9.2 mph 16.1 mph N/A   Overcast
2:35 AM 30.9 °F 24.3 °F 17.2 °F 57% 29.67 in 10.0 mi SSE 6.9 mph - N/A   Overcast
2:55 AM 30.7 °F 23.3 °F 17.2 °F 57% 29.65 in 10.0 mi SSE 8.1 mph - N/A   Overcast
3:15 AM 31.1 °F 24.5 °F 17.2 °F 57% 29.64 in 10.0 mi SE 6.9 mph - N/A   Overcast
3:35 AM 31.1 °F 24.5 °F 17.6 °F 57% 29.64 in 10.0 mi SSE 6.9 mph - N/A   Mostly Cloudy
3:55 AM 31.1 °F 25.4 °F 17.6 °F 57% 29.64 in 10.0 mi SSE 5.8 mph - N/A   Scattered Clouds
4:15 AM 31.1 °F 26.4 °F 17.6 °F 57% 29.63 in 10.0 mi SSE 4.6 mph - N/A   Scattered Clouds
4:35 AM 30.7 °F 27.3 °F 17.8 °F 59% 29.63 in 10.0 mi SE 3.5 mph - N/A   Scattered Clouds
4:55 AM 30.7 °F 24.9 °F 18.3 °F 60% 29.62 in 10.0 mi SSE 5.8 mph - N/A   Overcast
5:15 AM 31.1 °F 23.7 °F 18.5 °F 60% 29.60 in 10.0 mi South 8.1 mph - N/A   Overcast
5:35 AM 30.7 °F - 18.5 °F 60% 29.61 in 10.0 mi Calm Calm - N/A   Overcast
5:55 AM 30.9 °F 24.3 °F 19.0 °F 61% 29.61 in 10.0 mi SSE 6.9 mph - N/A   Overcast
6:15 AM 31.1 °F 24.5 °F 19.6 °F 62% 29.60 in 10.0 mi South 6.9 mph - N/A   Overcast
6:35 AM 31.3 °F 24.7 °F 19.6 °F 62% 29.60 in 10.0 mi SSE 6.9 mph - N/A   Overcast
6:55 AM 31.5 °F 24.9 °F 20.1 °F 63% 29.60 in 10.0 mi South 6.9 mph - N/A   Mostly Cloudy
7:15 AM 31.5 °F 25.8 °F 20.3 °F 63% 29.60 in 10.0 mi SSE 5.8 mph - N/A   Scattered Clouds
7:35 AM 31.3 °F 26.6 °F 21.0 °F 66% 29.59 in 10.0 mi SSE 4.6 mph - N/A   Mostly Cloudy
7:55 AM 32.0 °F 25.6 °F 21.6 °F 65% 29.59 in 10.0 mi SSE 6.9 mph - N/A   Mostly Cloudy
8:15 AM 32.0 °F 26.4 °F 22.3 °F 67% 29.60 in 10.0 mi South 5.8 mph - N/A   Mostly Cloudy
8:35 AM 32.0 °F 26.4 °F 22.6 °F 68% 29.59 in 10.0 mi SSE 5.8 mph - N/A   Overcast
8:55 AM 33.1 °F 26.1 °F 23.5 °F 68% 29.60 in 10.0 mi South 8.1 mph - N/A   Mostly Cloudy
9:15 AM 33.6 °F 26.2 °F 23.9 °F 68% 29.59 in 10.0 mi SSE 9.2 mph - N/A   Overcast
9:35 AM 34.2 °F 27.5 °F 24.1 °F 67% 29.59 in 10.0 mi South 8.1 mph - N/A   Scattered Clouds
9:55 AM 35.4 °F 26.4 °F 24.8 °F 65% 29.58 in 10.0 mi SSE 13.8 mph - N/A   Scattered Clouds
10:15 AM 37.2 °F 30.0 °F 25.0 °F 61% 29.59 in 10.0 mi South 10.4 mph - N/A   Scattered Clouds
10:35 AM 38.5 °F 30.3 °F 26.2 °F 61% 29.58 in 10.0 mi South 13.8 mph - N/A   Scattered Clouds
10:55 AM 39.4 °F 31.8 °F 26.1 °F 59% 29.57 in 10.0 mi South 12.7 mph - N/A   Scattered Clouds
11:15 AM 40.5 °F 34.6 °F 26.1 °F 57% 29.58 in 10.0 mi SSE 9.2 mph - N/A   Mostly Cloudy
11:35 AM 41.0 °F 36.4 °F 26.4 °F 56% 29.57 in 10.0 mi SSE 6.9 mph - N/A   Overcast
11:55 AM 42.3 °F 37.3 °F 26.6 °F 54% 29.57 in 10.0 mi SW 8.1 mph - N/A   Overcast
12:15 PM 46.6 °F - 25.9 °F 44% 29.57 in 10.0 mi WSW 13.8 mph 18.4 mph N/A   Overcast
12:35 PM 44.4 °F 37.5 °F 26.2 °F 49% 29.57 in 10.0 mi West 15.0 mph 19.6 mph N/A   Overcast
12:55 PM 43.5 °F 37.5 °F 26.4 °F 51% 29.58 in 10.0 mi West 11.5 mph 17.3 mph N/A   Overcast
1:15 PM 43.2 °F 36.6 °F 26.6 °F 52% 29.58 in 10.0 mi WSW 12.7 mph 19.6 mph N/A   Overcast
1:35 PM 42.8 °F 36.6 °F 27.3 °F 54% 29.59 in 10.0 mi West 11.5 mph 17.3 mph N/A   Overcast
2:15 PM 41.9 °F 35.0 °F 28.4 °F 59% 29.60 in 10.0 mi West 12.7 mph 16.1 mph N/A   Light Drizzle
2:35 PM 40.5 °F 33.2 °F 30.4 °F 67% 29.60 in 10.0 mi WSW 12.7 mph 17.3 mph N/A   Light Drizzle
2:55 PM 38.7 °F 32.9 °F 32.0 °F 77% 29.60 in 10.0 mi WSW 8.1 mph 19.6 mph N/A   Light Drizzle
3:15 PM 40.5 °F 35.8 °F 31.5 °F 70% 29.61 in 10.0 mi SW 6.9 mph - N/A   Overcast
3:35 PM 39.2 °F 33.6 °F 32.0 °F 75% 29.62 in 7.0 mi WSW 8.1 mph - N/A   Light Drizzle
3:55 PM 36.3 °F 28.0 °F 31.6 °F 83% 29.63 in 5.0 mi WNW 12.7 mph 19.6 mph N/A Rain Light Rain
4:15 PM 35.8 °F 27.8 °F 32.0 °F 86% 29.64 in 10.0 mi West 11.5 mph - N/A Rain Light Rain
4:35 PM 36.5 °F 29.7 °F 32.2 °F 84% 29.65 in 10.0 mi West 9.2 mph - N/A Rain Light Rain
4:55 PM 36.1 °F 29.9 °F 32.0 °F 85% 29.66 in 4.0 mi West 8.1 mph - N/A Rain Rain
5:15 PM 35.2 °F 28.1 °F 32.0 °F 88% 29.67 in 4.0 mi WNW 9.2 mph - N/A Rain Light Rain
5:35 PM 34.9 °F 28.3 °F 31.6 °F 88% 29.69 in 5.0 mi West 8.1 mph - N/A Snow Light Snow
5:55 PM 33.8 °F 28.6 °F 30.9 °F 89% 29.70 in 1.5 mi West 5.8 mph - N/A Snow Light Snow
6:15 PM 33.4 °F 29.1 °F 30.9 °F 90% 29.71 in 1.5 mi WSW 4.6 mph - N/A Snow Light Snow
6:35 PM 33.1 °F 28.7 °F 30.9 °F 92% 29.72 in 2.5 mi West 4.6 mph - N/A Snow Light Snow
6:55 PM 33.3 °F - 30.6 °F 90% 29.72 in 7.0 mi Calm Calm - N/A Snow Light Snow
7:15 PM 33.3 °F 28.9 °F 30.0 °F 88% 29.72 in 5.0 mi NNW 4.6 mph - N/A Snow Light Snow
7:35 PM 33.3 °F 26.4 °F 29.3 °F 85% 29.74 in 5.0 mi West 8.1 mph - N/A Snow Light Snow
7:55 PM 32.0 °F 24.2 °F 29.1 °F 89% 29.75 in 2.5 mi WNW 9.2 mph - N/A Snow Light Snow
8:15 PM 32.0 °F 25.6 °F 28.4 °F 87% 29.75 in 10.0 mi NW 6.9 mph - N/A Snow Light Snow
8:35 PM 31.8 °F 25.4 °F 26.2 °F 80% 29.75 in 10.0 mi NW 6.9 mph - N/A Snow Light Snow
8:55 PM 31.5 °F 24.9 °F 25.5 °F 79% 29.75 in 10.0 mi NW 6.9 mph - N/A Snow Light Snow
9:15 PM 31.1 °F 24.5 °F 26.2 °F 82% 29.76 in 7.0 mi WNW 6.9 mph - N/A Snow Light Snow
9:35 PM 30.7 °F 22.0 °F 27.0 °F 86% 29.77 in 1.5 mi WNW 10.4 mph - N/A Snow Light Snow
9:55 PM 28.9 °F 18.6 °F 24.6 °F 84% 29.78 in 1.8 mi NW 12.7 mph 19.6 mph N/A Snow Light Snow
10:15 PM 28.6 °F 22.4 °F 24.8 °F 86% 29.79 in 2.5 mi WNW 5.8 mph - N/A Snow Light Snow
10:35 PM 28.8 °F 20.2 °F 24.4 °F 84% 29.80 in 7.0 mi NW 9.2 mph - N/A Snow Light Snow
10:55 PM 28.4 °F 18.0 °F 22.1 °F 77% 29.81 in 5.0 mi West 12.7 mph 18.4 mph N/A Snow Light Snow
11:15 PM 27.5 °F 20.2 °F 22.5 °F 81% 29.81 in 3.0 mi NW 6.9 mph - N/A Snow Light Snow
11:35 PM 27.3 °F 19.9 °F 23.4 °F 85% 29.82 in 1.0 mi WNW 6.9 mph - N/A Snow Snow
11:55 PM 27.1 °F 21.8 °F 23.7 °F 87% 29.82 in 2.5 mi WNW 4.6 mph - N/A Snow Light Snow